Theta_e
298 298 297 298 298 299 300 301 300 299 298 297 296 296 295 295 295 297 295 297 294 287 288 289 290 286 284 285 282 281 281 279 279 277 277 279 275 275 273 275 273 273 271 271 272 271 276 277 276 280 287 274 276 279
297 296 296 297 297 297 298 299 300 300 298 297 297 296 296 294 294 295 292 296 295 288 287 288 290 290 289 290 286 282 283 281 282 280 279 277 275 274 274 279 275 274 278 277 277 281 282 279 284 281 276 280 275 279
295 295 295 294 295 295 295 297 298 300 300 298 298 297 296 295 294 294 293 294 292 285 287 285 286 287 288 288 290 283 283 286 283 285 282 279 276 278 278 277 276 276 278 278 278 283 281 279 282 278 276 280 279 281
294 293 293 293 293 293 294 295 296 297 299 299 298 297 296 295 294 293 291 295 292 287 283 285 286 284 286 287 287 287 285 285 285 284 281 280 278 282 280 279 278 281 278 278 279 283 282 281 281 284 280 277 278 279
293 292 292 292 292 293 294 294 294 296 297 300 298 298 296 295 294 293 292 294 294 288 283 285 284 283 284 285 285 286 285 284 284 281 280 278 281 278 279 277 277 280 281 280 283 287 286 285 284 283 282 279 279 278
292 293 292 292 292 292 293 294 294 294 296 298 298 298 296 295 293 292 284 292 292 292 285 283 282 280 281 283 284 284 285 285 285 283 282 283 282 280 279 276 281 282 284 286 286 284 284 283 282 282 282 283 280 280
292 292 292 292 292 293 294 294 295 294 296 297 298 297 296 294 292 285 283 291 294 292 285 283 282 280 280 283 283 283 284 283 283 283 281 282 280 282 280 277 283 286 285 284 283 283 283 281 283 281 281 281 279 278
291 291 291 292 293 294 294 294 295 295 295 296 298 296 295 294 292 286 288 293 293 286 285 282 279 276 281 279 278 282 280 280 281 281 279 278 279 280 276 280 283 287 284 280 281 283 283 278 277 276 276 275 275 275
290 290 291 292 292 293 294 294 294 295 295 296 296 294 290 286 282 283 290 294 292 287 282 283 277 277 280 277 278 278 280 276 277 277 276 277 276 274 279 281 284 285 282 284 276 276 275 277 278 275 275 274 276 277
290 289 290 290 293 293 294 294 294 294 295 296 289 283 278 280 288 292 287 283 282 284 283 280 274 274 278 276 275 275 276 276 273 275 273 272 274 279 282 283 284 283 282 278 278 276 272 274 275 275 274 277 278 279
290 289 289 290 291 292 292 294 294 294 292 284 280 278 282 287 283 284 275 279 280 278 282 279 276 275 278 275 275 276 274 274 271 272 272 273 271 276 277 277 279 278 280 280 278 275 275 278 278 277 274 274 274 274
289 290 288 290 291 291 292 292 292 286 284 284 283 285 284 278 274 273 274 276 276 276 276 274 274 278 277 277 275 273 272 272 271 267 270 270 276 280 275 273 270 268 269 271 268 271 271 272 272 271 271 273 273 274
290 290 291 290 290 292 292 292 291 291 288 282 277 274 274 270 269 267 263 269 272 275 275 273 274 274 274 276 274 273 270 270 267 267 269 274 280 275 273 271 269 266 266 266 266 264 265 266 265 266 270 270 268 271
290 290 290 290 290 290 291 292 292 289 281 274 272 265 268 264 267 268 272 272 276 275 275 274 272 275 274 274 273 272 269 267 266 264 270 278 277 273 269 268 268 269 266 265 265 264 263 264 265 264 264 266 268 270
291 291 290 290 290 290 290 291 291 285 278 270 269 264 264 270 269 274 272 272 276 274 276 274 271 274 273 273 272 266 264 266 268 272 277 276 271 269 269 267 267 268 267 265 263 263 264 263 264 265 264 264 268 268
291 291 287 290 290 291 291 290 286 284 276 272 270 267 266 268 268 268 275 275 278 278 278 276 274 272 275 273 267 269 272 270 277 273 273 269 267 266 266 264 264 265 265 265 265 264 264 265 265 266 265 266 266 269
291 282 290 291 290 290 290 284 282 278 276 274 270 264 269 270 271 273 276 277 280 277 274 276 271 275 271 270 269 271 272 278 274 270 267 268 268 266 264 263 264 265 265 265 265 265 265 266 266 269 269 267 268 267
284 286 291 291 289 286 284 283 279 277 273 267 268 270 268 273 276 275 276 276 277 277 277 274 274 271 273 273 273 278 273 265 265 266 265 265 264 263 264 264 264 264 264 263 263 264 265 265 266 266 266 266 267 267
284 286 291 291 286 277 273 278 274 266 267 262 263 264 267 269 274 275 276 276 279 280 278 276 273 272 273 272 271 268 264 265 266 265 263 262 265 265 264 264 264 263 263 263 264 263 263 263 263 265 266 267 267 267
291 291 290 290 288 277 272 276 271 266 265 269 262 264 268 271 272 272 273 275 276 277 275 273 273 271 264 265 264 264 264 266 265 265 264 264 265 265 265 265 264 264 264 264 264 264 265 265 264 264 264 265 266 265
288 286 290 286 281 277 269 266 269 267 265 267 261 267 269 266 271 271 272 276 275 275 274 270 262 264 264 264 262 261 264 267 267 267 266 263 264 265 264 264 265 264 264 263 263 262 262 262 262 263 265 264 265 265
278 289 282 284 277 273 272 268 267 266 266 265 263 264 264 265 268 270 273 274 272 266 262 261 262 263 263 263 263 261 260 263 262 264 264 264 264 264 264 264 264 262 262 262 262 262 262 262 263 263 264 263 264 263
287 285 279 277 273 271 270 267 263 265 265 262 263 268 270 268 270 272 272 267 262 260 259 259 263 263 262 263 264 264 264 263 263 263 263 262 262 262 262 262 263 263 262 260 261 261 261 261 262 262 263 262 262 262
286 278 275 273 272 268 266 263 262 262 260 261 261 263 264 267 267 269 267 259 259 259 260 261 263 263 264 263 262 263 265 264 263 263 264 263 261 259 260 260 260 260 261 261 261 261 261 260 261 261 261 261 260 260
273 270 272 267 261 259 257 263 260 262 260 258 260 263 264 266 267 263 267 259 257 258 259 261 264 265 263 261 262 262 264 265 263 260 261 261 260 260 259 259 260 260 261 262 261 260 260 260 260 260 259 259 258 258
267 265 266 266 257 262 259 261 259 261 258 259 262 264 265 268 266 267 260 253 254 254 255 255 255 262 262 263 262 262 262 264 263 260 260 262 263 263 261 261 260 260 261 261 262 260 259 259 258 258 257 257 257 258
265 259 254 252 257 259 260 258 257 259 258 262 262 262 264 266 262 254 253 253 252 254 255 256 256 256 261 260 261 261 261 261 261 260 260 260 260 260 262 262 260 260 261 261 261 261 259 259 257 256 256 255 254 255
254 252 261 255 254 255 258 253 258 262 258 253 256 259 263 260 258 251 253 254 254 255 256 257 258 259 260 261 261 260 260 260 260 261 261 260 259 259 260 261 263 263 261 260 260 259 258 257 255 255 254 254 253 253
259 257 260 255 251 249 249 255 254 248 249 250 258 259 257 252 252 252 253 254 254 255 256 256 258 259 259 260 260 260 261 261 262 261 259 259 259 258 259 261 262 261 261 260 261 257 256 255 254 254 253 253 253 253
258 254 251 249 252 252 248 247 247 249 251 252 252 252 251 252 253 254 253 254 254 256 257 257 258 259 259 259 258 258 258 258 259 263 261 260 258 258 259 259 258 258 258 258 258 258 260 257 257 255 254 253 253 253
258 258 254 249 248 248 248 248 249 250 251 252 252 252 252 253 253 254 254 254 255 256 257 257 258 259 259 259 259 258 257 257 258 259 259 258 257 256 256 255 255 256 256 255 255 254 254 253 253 252 251 250 249 250
257 258 256 251 248 249 249 249 251 253 252 252 251 251 251 251 253 253 254 254 255 256 257 257 257 256 257 258 258 258 258 257 257 257 257 256 255 255 255 255 255 255 255 254 253 253 252 252 251 250 249 248 247 247
254 254 253 249 248 248 250 250 252 252 253 253 251 252 253 253 254 253 254 254 255 256 255 255 256 258 258 258 257 258 258 258 259 260 258 257 256 256 255 255 255 254 253 252 252 251 250 249 249 247 247 247 246 246
Wind_Speed
12 12 12 12 12 13 13 17 19 16 13 11 8 6 5 5 8 4 4 0 2 2 3 6 6 4 2 3 2 4 2 2 2 4 4 2 3 3 3 4 7 9 10 6 4 4 7 9 8 7 2 1 4 10
12 13 12 12 12 13 14 13 14 17 17 15 13 9 6 4 5 5 2 0 1 2 3 2 3 3 4 3 4 5 2 3 4 4 3 1 3 2 1 4 2 5 6 4 11 7 2 14 1 3 2 4 8 11
12 11 12 13 16 17 18 18 17 17 21 19 17 13 9 6 4 3 2 1 1 2 3 1 6 0 1 3 1 3 2 4 4 1 2 0 7 4 4 6 3 7 5 4 2 3 12 11 12 5 6 4 6 11
13 13 14 14 14 17 20 22 21 20 18 22 20 17 12 8 5 3 1 0 2 2 4 3 1 4 0 2 3 1 3 4 3 2 2 3 4 3 3 2 4 1 7 4 8 11 6 13 14 10 12 6 6 10
17 17 14 14 18 19 21 23 24 24 21 21 23 20 15 10 6 2 3 4 3 3 3 3 2 3 1 4 6 4 5 4 3 4 4 5 3 2 2 2 7 9 9 8 8 7 3 4 3 11 14 16 13 14
15 17 15 18 18 23 27 26 25 24 22 16 23 21 15 11 6 1 3 1 4 3 4 4 3 1 1 4 6 6 5 3 2 3 3 4 2 4 5 6 7 12 9 11 7 2 4 3 3 4 14 14 14 16
17 17 16 18 25 25 22 25 24 25 22 19 24 24 16 13 3 3 4 5 8 2 2 5 4 1 3 3 2 2 2 2 2 3 5 3 4 5 4 9 4 10 15 12 7 3 6 5 5 5 5 6 8 4
16 10 13 20 20 20 20 20 23 23 22 18 21 20 15 12 4 5 2 11 6 1 3 5 1 2 5 3 3 2 3 2 4 3 1 3 2 3 8 12 21 22 5 4 9 13 4 3 2 3 3 6 7 10
9 7 12 14 16 18 16 20 18 20 19 18 20 16 4 3 2 4 3 3 4 4 4 4 4 3 4 1 1 2 2 4 1 3 3 3 3 10 18 15 17 11 10 6 1 1 3 7 5 6 6 7 9 12
12 3 8 7 8 3 20 17 18 17 14 25 9 3 3 5 6 5 3 3 3 3 5 4 2 3 3 2 2 1 1 3 4 3 2 4 8 23 19 19 17 6 9 8 4 3 4 7 11 9 12 8 11 11
13 4 4 2 6 11 9 22 16 17 17 2 3 3 1 0 2 2 3 4 4 5 6 3 6 4 4 4 4 4 2 2 4 2 3 3 9 8 1 6 9 3 4 11 2 2 2 3 5 9 8 9 8 7
13 11 4 5 9 9 19 20 20 4 2 6 7 5 2 3 3 3 4 2 6 7 1 4 6 4 4 2 3 3 3 1 7 2 2 6 10 3 2 1 1 2 2 3 1 4 4 4 3 3 4 5 8 8
14 12 13 9 8 13 17 20 14 20 10 4 5 4 2 2 3 5 5 4 3 5 1 3 3 4 3 2 3 2 5 6 2 3 7 9 3 1 2 1 1 3 3 3 3 3 3 4 4 5 7 5 4 6
15 15 14 13 11 10 11 15 22 10 6 3 4 3 5 2 4 6 4 3 1 2 6 3 4 4 3 5 4 5 1 1 3 4 9 5 0 2 3 2 2 1 3 4 5 3 4 5 5 4 5 4 4 5
17 15 16 14 13 13 12 12 19 3 3 3 4 4 4 5 2 3 2 1 1 1 3 3 3 4 4 5 4 6 3 8 8 8 6 1 2 3 3 1 2 2 3 3 3 3 4 4 4 4 3 4 4 2
16 16 10 15 15 15 14 11 4 2 2 3 2 1 3 2 3 1 3 2 1 2 2 2 5 6 7 5 7 12 6 9 6 6 1 2 2 2 2 1 2 3 3 3 3 3 3 2 1 1 2 3 1 3
15 2 13 17 15 15 17 4 3 4 5 5 5 1 3 3 4 4 4 5 5 2 2 5 6 9 4 4 5 7 9 4 1 1 1 1 2 3 3 2 1 1 3 2 2 3 2 2 4 4 8 5 5 5
2 5 17 19 14 6 1 2 3 4 5 3 3 4 4 4 6 3 4 3 5 4 3 4 4 5 6 9 7 7 4 1 0 1 1 2 3 3 3 4 3 3 5 4 4 4 5 7 8 6 6 5 5 6
7 6 14 21 9 6 4 2 4 5 6 3 2 1 3 2 4 3 2 5 6 3 3 3 7 7 6 1 3 2 1 2 3 3 2 1 2 5 5 6 4 5 6 6 7 6 6 8 6 5 4 4 5 4
19 20 17 15 12 4 4 3 3 4 4 4 2 1 4 4 3 3 3 4 5 3 6 7 8 2 2 4 4 4 5 1 4 4 3 3 2 5 4 6 4 4 6 5 6 6 5 6 6 6 6 6 6 6
15 6 12 7 2 3 4 4 2 4 4 4 2 4 4 1 4 4 4 7 5 5 6 3 2 1 3 6 5 5 3 2 2 2 3 5 3 5 4 5 3 4 6 5 6 6 7 6 4 4 6 6 6 6
4 15 3 3 3 3 1 1 3 3 3 3 2 2 2 3 3 4 2 4 5 3 2 2 1 2 2 3 2 3 1 1 2 6 11 8 6 6 5 3 4 6 6 5 5 5 4 4 4 5 6 6 6 7
11 7 3 3 3 2 2 1 3 2 4 4 2 3 3 3 3 1 4 2 3 2 1 2 3 1 3 1 3 3 5 5 5 5 6 6 6 6 5 5 3 5 6 5 3 4 4 5 6 6 5 6 6 7
10 6 8 6 5 5 0 2 1 3 3 2 2 4 4 5 1 2 5 2 2 2 0 2 2 2 1 5 3 4 4 5 7 6 5 6 7 6 5 5 5 5 4 3 4 5 5 5 6 6 6 7 7 7
8 6 6 5 2 6 4 4 1 3 5 5 4 4 4 2 2 4 5 2 1 1 3 4 3 1 1 2 4 2 5 2 5 7 5 5 7 6 6 5 5 4 1 5 5 6 6 6 6 8 8 8 8 9
5 1 3 5 3 6 7 6 6 8 4 3 7 3 0 0 4 8 0 2 2 3 3 3 4 2 2 3 3 2 2 3 3 6 3 2 2 3 5 6 4 4 4 2 5 7 8 7 8 10 9 9 9 8
6 5 3 1 3 5 3 2 2 4 5 7 4 2 2 3 8 3 1 1 1 1 3 4 4 5 1 2 3 3 4 5 5 4 5 5 6 5 3 4 5 2 2 4 5 7 8 8 9 9 9 8 8 6
4 4 7 3 4 2 6 2 6 7 4 2 3 4 6 5 2 1 2 0 3 4 4 4 3 2 3 4 3 4 6 6 8 7 9 9 7 6 5 4 5 9 6 6 7 8 8 8 9 9 9 9 7 6
3 1 3 3 1 4 2 3 4 2 2 3 6 4 3 2 1 1 0 2 3 3 0 1 2 2 3 4 4 4 3 1 3 7 11 6 4 4 4 4 6 7 7 10 15 11 11 9 9 9 9 8 6 7
2 2 6 4 4 4 2 2 3 2 0 1 2 2 1 2 2 1 2 2 2 2 1 2 1 1 2 4 3 3 4 3 3 2 5 6 5 4 3 5 5 6 6 8 9 10 12 8 9 7 9 8 8 9
3 3 5 3 1 0 3 2 2 2 1 1 1 2 0 1 2 2 2 2 2 2 2 3 3 2 3 3 2 3 2 4 5 8 9 8 7 5 5 5 4 5 6 7 7 8 9 9 9 11 12 12 10 9
1 3 5 3 1 1 2 1 3 2 2 2 2 1 1 1 3 3 2 2 3 3 2 3 4 2 2 3 3 4 9 5 5 7 10 8 7 6 5 5 5 7 8 9 9 9 11 11 10 10 10 9 8 8
3 3 4 4 3 1 3 3 2 2 1 3 4 4 4 3 4 1 1 1 1 2 4 4 3 3 6 7 7 7 7 7 12 15 15 13 11 9 6 6 7 9 11 10 9 10 13 14 11 9 8 9 8 7
Wind_Direction
227 244 254 269 273 279 275 244 242 228 234 240 239 252 285 321 324 350 290 253 274 261 245 193 185 157 143 189 213 134 153 175 160 207 216 243 220 182 237 159 181 175 163 188 178 225 278 148 119 196 208 68 185 167
244 253 259 262 266 279 280 285 262 233 233 234 239 235 235 278 319 325 272 353 359 234 259 289 241 238 228 190 149 183 308 158 179 187 211 281 245 185 269 262 205 236 206 190 209 220 46 197 222 211 197 148 195 189
241 241 256 255 261 271 272 273 274 243 228 227 234 234 227 229 264 307 299 345 312 325 272 239 229 67 298 238 316 169 216 177 199 86 119 322 261 162 221 235 235 223 176 250 300 223 233 217 224 221 198 232 196 207
231 242 250 256 269 269 270 270 265 266 260 221 220 228 220 218 233 241 190 179 298 279 267 252 52 254 44 216 201 104 121 115 116 161 182 215 246 211 245 309 237 129 150 216 260 274 263 243 228 211 206 209 205 185
241 248 244 260 266 269 275 257 257 255 253 228 218 220 213 208 214 252 217 212 200 260 290 294 206 182 128 196 193 172 167 156 174 181 193 217 219 217 211 284 236 186 186 193 229 223 222 256 202 189 193 200 199 179
237 236 246 257 276 279 268 259 246 246 246 237 215 220 206 195 172 86 320 15 188 151 261 258 43 129 75 205 198 193 192 198 212 216 212 222 206 180 245 247 252 213 222 236 246 203 237 285 248 185 211 195 187 194
244 246 258 279 284 273 259 247 232 235 232 238 204 216 195 186 146 171 195 145 86 136 255 270 226 115 188 165 173 169 189 206 228 224 229 239 192 203 249 246 257 249 228 229 219 125 265 199 247 181 175 165 154 183
240 259 279 290 284 269 242 241 226 224 215 226 203 207 179 177 121 268 294 248 132 237 243 259 252 245 191 172 185 186 177 187 207 260 246 221 159 232 257 241 243 249 228 231 221 213 224 127 103 132 125 133 168 190
215 255 304 289 287 268 250 225 217 209 202 203 177 178 102 91 164 236 247 332 156 202 260 230 192 237 156 137 100 184 216 210 69 242 226 186 192 226 224 234 244 226 202 221 133 224 176 228 206 178 170 184 196 205
198 258 340 291 335 286 222 215 200 194 188 174 129 133 154 199 232 264 62 141 187 209 235 257 50 172 160 152 181 156 233 235 233 206 124 211 250 249 244 238 251 210 206 150 151 259 200 243 220 202 210 204 207 205
193 184 360 220 88 78 46 190 171 144 123 62 119 113 145 68 75 161 207 193 193 231 216 178 164 157 212 155 179 213 206 206 249 159 221 228 262 245 39 267 265 285 215 203 241 47 128 203 205 207 215 217 214 199
214 177 144 270 162 119 111 112 117 82 116 120 104 98 109 71 77 129 210 232 210 228 187 172 186 164 161 214 135 184 215 164 249 114 216 252 252 234 222 242 41 15 300 254 252 254 263 259 244 245 261 236 212 215
210 203 176 230 156 162 155 142 132 119 90 58 52 70 95 252 136 179 219 258 302 352 17 315 191 140 139 213 95 158 214 227 129 195 234 240 254 198 179 172 104 37 4 320 310 289 267 258 237 217 237 223 253 219
208 201 199 187 178 167 163 155 139 115 77 99 137 146 177 219 225 198 176 174 228 302 298 247 262 185 160 167 147 202 139 219 230 234 234 242 175 68 100 40 320 332 351 320 292 280 273 268 269 263 248 244 219 217
206 208 196 198 190 182 183 183 159 76 114 138 107 193 199 214 243 174 135 68 181 244 320 263 244 239 164 164 189 105 174 238 220 228 229 184 168 169 133 131 319 327 321 303 304 311 300 278 269 284 262 238 222 195
205 205 202 191 199 191 186 154 75 100 71 104 171 109 251 113 287 80 172 191 175 270 267 236 257 245 186 167 167 209 189 219 228 224 335 105 120 139 99 14 338 330 329 332 313 282 273 262 156 19 78 84 165 152
181 182 190 198 191 193 167 109 126 172 195 190 229 207 169 128 197 236 214 208 175 197 263 282 255 242 107 177 237 199 219 217 303 149 111 19 124 134 107 95 56 63 82 59 35 27 29 74 128 98 73 39 48 52
151 198 186 183 172 115 90 127 159 187 220 202 162 210 196 200 203 215 211 169 159 188 194 241 288 274 225 188 226 218 223 134 48 112 98 102 112 94 93 101 98 98 92 68 48 40 36 54 65 62 65 50 62 56
164 166 184 182 139 108 118 178 135 197 220 182 286 269 179 206 242 270 177 173 196 163 212 221 249 241 246 237 300 346 324 207 165 144 105 52 110 117 115 100 83 79 70 64 59 58 56 51 58 57 62 67 80 51
167 169 173 184 157 117 137 182 94 125 186 213 111 209 193 208 232 214 181 159 175 205 213 219 228 244 214 311 303 299 290 218 148 128 119 99 90 103 100 102 92 95 87 65 57 39 48 58 39 43 47 48 67 55
186 192 180 113 115 92 137 153 161 199 158 187 217 161 224 271 220 208 210 158 179 219 236 222 229 241 266 263 267 256 256 225 238 218 154 140 128 117 107 84 88 75 79 67 70 52 47 55 43 44 61 66 62 61
175 158 91 99 127 119 131 166 190 167 136 187 114 166 221 248 241 228 158 174 224 239 225 192 253 259 293 273 333 350 270 69 33 89 88 114 125 116 95 101 98 86 78 71 71 75 66 52 55 60 68 65 58 58
153 138 115 110 103 155 239 68 115 201 137 249 118 185 242 255 243 47 250 215 167 177 269 293 299 166 198 31 52 15 53 83 79 75 90 89 83 87 94 71 71 104 97 68 63 76 74 54 57 70 70 66 68 64
102 163 173 173 149 163 83 243 346 103 46 94 126 254 268 216 176 204 262 267 323 341 166 300 258 216 93 70 46 25 31 95 92 80 82 103 98 76 79 82 68 59 67 102 84 76 68 66 65 68 68 72 64 67
142 192 170 151 61 107 126 182 199 98 192 210 141 269 257 114 234 224 220 130 321 5 342 309 271 324 136 122 102 61 12 86 118 106 46 75 107 101 84 74 68 51 4 103 90 92 82 77 72 73 69 67 72 67
119 133 193 154 158 147 177 131 180 190 162 180 232 247 56 35 224 252 132 13 3 348 345 353 338 343 52 25 117 119 84 58 79 92 77 29 68 111 126 124 114 66 25 57 113 109 98 89 84 80 70 54 47 65
134 213 269 251 105 117 86 35 99 117 154 187 223 152 104 238 242 263 325 8 240 353 309 318 316 313 42 90 66 41 53 57 75 97 104 75 56 37 59 108 111 102 101 103 94 97 102 94 86 81 80 65 50 46
153 158 147 206 79 345 133 130 147 188 160 256 75 165 224 214 133 218 247 278 308 315 306 298 303 329 66 76 87 109 95 102 110 112 95 70 52 38 35 58 92 92 81 74 78 77 80 88 89 88 86 82 72 40
83 95 114 79 66 46 101 160 145 219 182 154 159 195 232 279 312 196 264 321 310 284 21 39 21 36 81 79 60 58 76 153 195 128 104 105 104 47 4 64 79 83 83 85 82 82 83 87 92 95 94 93 87 77
190 124 79 12 126 194 199 138 158 180 22 60 86 105 16 294 312 330 300 298 259 256 186 146 196 213 128 123 112 73 21 345 335 109 127 127 129 126 82 77 75 68 71 84 91 90 86 88 91 76 75 70 68 69
138 123 99 72 157 320 133 118 57 70 105 103 59 87 217 280 239 234 264 253 232 217 201 149 110 101 131 136 128 131 109 17 38 73 89 96 100 99 92 81 79 88 93 97 102 105 104 88 82 83 78 74 66 73
51 102 122 133 259 53 50 100 163 151 157 146 161 150 219 243 247 176 191 234 207 170 158 124 131 126 90 83 64 62 82 98 96 91 91 96 95 94 97 97 99 102 103 99 95 94 92 94 92 88 89 85 81 77
86 53 77 97 94 165 215 123 171 138 209 209 209 199 192 214 231 230 137 251 239 140 125 104 100 97 95 90 90 93 99 100 97 95 96 101 106 108 101 99 103 103 99 98 95 96 92 94 94 96 93 89 82 78